{"data":{"norad_id":52569,"epoch":"2026-05-25T03:23:03.353856Z","epoch_age_seconds":73181,"freshness":"FRESH","line1":"1 52569U 22051AN  26145.14101104 -.00000245  00000+0  27150-5 0  9998","line2":"2 52569  53.2135 135.9190 0001226  78.3440 281.7689 15.08834989223129","mean_motion":15.08834989,"eccentricity":0.0001226,"inclination_deg":53.2135,"raan_deg":135.919,"arg_perigee_deg":78.344,"mean_anomaly_deg":281.7689,"bstar":2.715e-6,"rev_number":22312,"period_min":95.437871635942,"perigee_km":538.9105716153,"apogee_km":540.60683964232,"semimajor_km":6917.8957056288,"source":"CELESTRAK","updated_at":"2026-05-25T13:38:17.191740Z"}}